DW5868 Weather Reports


Display with metric or nautical units.
time (UTC)temp
F
wind
direction
speed
MPH
gust
MPH
rain 1hr
in
rain 24hr
in
rain mn
in
humidity
%
barometer
mb
20260906201508 61 284 6.0 25.0 0.00 0.00 0.00 25 1008.5
20260906200008 61 250 6.0 18.0 0.00 0.00 0.00 24 1008.4
20260906194507 60 280 10.0 19.0 0.00 0.00 0.00 27 1008.4
20260906193005 62 273 5.0 15.0 0.00 0.00 0.00 29 1008.6
20260906191505 61 276 6.0 21.0 0.00 0.00 0.00 30 1008.7
20260906190004 60 298 6.0 25.0 0.00 0.00 0.00 31 1008.5
20260906184510 60 207 7.0 21.0 0.00 0.00 0.00 30 1008.6
20260906183003 61 294 8.0 22.0 0.00 0.00 0.00 29 1008.6
20260906181600 61 290 4.0 26.0 0.00 0.00 0.00 31 1008.4
20260906180100 61 321 7.0 18.0 0.00 0.00 0.00 29 1008.4
20260906174605 60 220 8.0 19.0 0.00 0.00 0.00 29 1008.3
20260906173114 61 275 5.0 21.0 0.00 0.00 0.00 28 1008.3
20260906171558 61 270 5.0 16.0 0.00 0.00 0.00 28 1008.3
20260906170057 60 246 4.0 15.0 0.00 0.00 0.00 29 1008.5
20260906164552 58 319 8.0 23.0 0.00 0.00 0.00 30 1008.7
20260906163056 58 244 5.0 17.0 0.00 0.00 0.00 31 1008.7
20260906161551 58 200 6.0 20.0 0.00 0.00 0.00 27 1008.7
20260906160052 57 287 5.0 16.0 0.00 0.00 0.00 29 1008.7
20260906154548 56 309 3.0 14.0 0.00 0.00 0.00 29 1008.8
20260906153048 56 319 8.0 21.0 0.00 0.00 0.00 29 1009.0
20260906151545 55 259 5.0 17.0 0.00 0.00 0.00 28 1009.1
20260906150043 53 268 9.0 18.0 0.00 0.00 0.00 37 1009.1
20260906144543 53 284 8.0 24.0 0.00 0.00 0.00 28 1008.8
20260906143041 53 175 5.0 23.0 0.00 0.00 0.00 27 1008.6
20260906141542 52 175 8.0 22.0 0.00 0.00 0.00 29 1008.3
20260906140046 0 0.0 0.0 0.00 0.00 0.00 1007.9
20260906134534 0 0.0 0.0 0.00 0.00 0.00 1007.8
20260906133029 0 0.0 0.0 0.00 0.00 0.00 1007.6
20260906131534 0 0.0 0.0 0.00 0.00 0.00 1007.3
20260906130022 0 0.0 0.0 0.00 0.00 0.00 1007.8
20260906124517 0 0.0 0.0 0.00 0.00 0.00 1007.9
20260906123014 0 0.0 0.0 0.00 0.00 0.00 1008.1
20260906121508 0 0.0 0.0 0.00 0.00 0.00 1008.3
20260906120004 0 0.0 0.0 0.00 0.00 0.00 1008.6
20260906114601 0 0.0 0.0 0.00 0.00 0.00 1009.0
20260906113103 51 146 6.0 20.0 0.00 0.00 0.00 26 1009.2
20260906111558 50 277 3.0 11.0 0.00 0.00 0.00 27 1009.1
20260906104554 49 282 5.0 14.0 0.00 0.00 0.00 33 1009.0
20260906103053 49 264 4.0 12.0 0.00 0.00 0.00 36 1008.8
20260906101552 49 279 6.0 19.0 0.00 0.00 0.00 39 1008.9
20260906100050 49 250 4.0 20.0 0.00 0.00 0.00 39 1009.1
20260906094604 48 279 6.0 25.0 0.00 0.00 0.00 46 1009.0
20260906093057 48 240 8.0 23.0 0.00 0.00 0.00 48 1009.3
20260906091545 48 261 8.0 21.0 0.00 0.00 0.00 48 1009.2
20260906090110 48 275 8.0 23.0 0.00 0.00 0.00 49 1009.6
20260906084551 48 277 9.0 23.0 0.00 0.00 0.00 51 1009.3
20260906083043 48 261 10.0 30.0 0.00 0.00 0.00 54 1009.5
20260906081539 48 223 8.0 18.0 0.00 0.00 0.00 53 1009.4
20260906080037 48 267 8.0 20.0 0.00 0.00 0.00 54 1009.2
20260906074544 48 163 6.0 23.0 0.00 0.00 0.00 54 1009.4
20260906073032 48 336 10.0 20.0 0.00 0.00 0.00 53 1009.6
20260906071533 48 262 6.0 23.0 0.00 0.00 0.00 51 1009.3
20260906070032 48 256 10.0 21.0 0.00 0.00 0.00 52 1009.1
20260906064534 49 267 9.0 26.0 0.00 0.00 0.00 53 1009.1
20260906063032 49 250 8.0 22.0 0.00 0.00 0.00 53 1009.0
20260906061540 48 286 6.0 22.0 0.00 0.00 0.00 57 1009.0
20260906060032 48 153 6.0 23.0 0.00 0.00 0.00 60 1009.2
20260906054531 48 269 5.0 20.0 0.00 0.00 0.00 60 1009.1
20260906053033 48 222 8.0 26.0 0.00 0.00 0.00 61 1009.3
20260906051536 48 289 9.0 23.0 0.00 0.00 0.00 62 1009.1
20260906050030 49 246 9.0 28.0 0.00 0.00 0.00 61 1009.1
20260906044529 49 275 9.0 24.0 0.00 0.00 0.00 60 1009.4
20260906043033 49 257 7.0 19.0 0.00 0.00 0.00 62 1009.1
20260906041543 49 257 8.0 33.0 0.00 0.00 0.00 60 1009.3
20260906040033 49 256 8.0 23.0 0.00 0.00 0.00 61 1008.9
20260906034535 50 161 6.0 18.0 0.00 0.00 0.00 61 1009.1
20260906033030 50 93 7.0 16.0 0.00 0.00 0.00 60 1008.8
20260906031535 50 252 5.0 27.0 0.00 0.00 0.00 60 1008.5
20260906030034 50 173 4.0 14.0 0.00 0.00 0.00 61 1008.9
20260906024528 51 336 4.0 21.0 0.00 0.00 0.00 60 1008.7
20260906023027 51 257 4.0 14.0 0.00 0.00 0.00 61 1008.7
20260906021528 51 231 6.0 19.0 0.00 0.00 0.00 60 1008.6
20260906020027 52 271 4.0 17.0 0.00 0.00 0.00 59 1008.7
20260906014541 53 207 3.0 17.0 0.00 0.00 0.00 58 1008.5
20260906013027 54 272 4.0 24.0 0.00 0.00 0.00 57 1008.7
20260906011526 55 259 5.0 20.0 0.00 0.00 0.00 54 1008.5
20260906010053 56 163 4.0 22.0 0.00 0.00 0.00 52 1008.6
20260906004524 57 263 4.0 21.0 0.00 0.00 0.00 52 1008.5
20260906003025 57 229 6.0 16.0 0.00 0.00 0.00 51 1008.4
20260906001536 58 278 5.0 19.0 0.00 0.00 0.00 51 1008.5
20260906000023 58 270 6.0 18.0 0.00 0.00 0.00 50 1008.2
20260905234522 59 312 6.0 19.0 0.00 0.00 0.00 50 1008.2
20260905233022 59 224 6.0 17.0 0.00 0.00 0.00 50 1008.1
20260905231536 59 273 7.0 18.0 0.00 0.00 0.00 49 1008.3
20260905230022 59 84 7.0 21.0 0.00 0.00 0.00 49 1008.3
20260905224526 59 38 6.0 24.0 0.00 0.00 0.00 48 1008.3
20260905223033 59 215 7.0 23.0 0.00 0.00 0.00 47 1008.4
20260905221520 60 172 4.0 27.0 0.00 0.00 0.00 46 1008.4
20260905220025 61 255 6.0 16.0 0.00 0.00 0.00 45 1008.5
20260905214519 61 260 6.0 16.0 0.00 0.00 0.00 44 1008.7
20260905213021 60 253 7.0 20.0 0.00 0.00 0.00 46 1008.9
20260905211535 62 281 7.0 25.0 0.00 0.00 0.00 41 1008.8
20260905210020 62 272 6.0 19.0 0.00 0.00 0.00 40 1008.8
20260905204524 62 300 7.0 21.0 0.00 0.00 0.00 40 1008.8
20260905203033 62 277 6.0 16.0 0.00 0.00 0.00 40 1008.7